Date,TemperatureHighF,TemperatureAvgF,TemperatureLowF,DewpointHighF,DewpointAvgF,DewpointLowF,HumidityHigh,HumidityAvg,HumidityLow,PressureMaxIn,PressureMinIn,WindSpeedMaxMPH,WindSpeedAvgMPH,GustSpeedMaxMPH,PrecipitationSumIn
2013-1-1,36.1,34.9,33.7,34.0,32.4,30.6,92,90,87,30.60,30.51,0,0,0,0.00
2013-1-2,38.2,35.2,33.3,35.5,32.7,30.7,93,91,88,30.51,30.30,0,0,0,0.00
2013-1-3,37.7,35.0,32.5,35.3,32.2,29.6,93,90,86,30.30,30.18,3,0,3,0.00
2013-1-4,41.4,39.6,37.9,40.6,38.2,36.2,97,95,93,30.79,30.22,2,0,2,0.10
2013-1-5,42.3,41.5,40.8,41.1,40.2,38.9,96,95,93,30.26,30.12,4,0,4,0.00
2013-1-6,43.3,42.6,41.5,42.1,41.1,39.2,96,94,91,30.20,30.03,6,0,6,0.00
2013-1-7,44.2,41.8,40.2,44.1,40.5,38.3,100,95,92,30.19,29.85,3,0,3,0.00
2013-1-8,46.4,41.9,40.3,46.4,40.8,38.5,100,96,93,30.21,29.72,5,0,5,0.00
2013-1-9,45.5,43.4,40.5,45.5,40.3,36.3,100,89,81,29.98,29.73,3,0,3,0.00
2013-1-10,41.3,39.8,35.3,38.6,35.8,31.2,90,86,78,30.23,29.99,3,0,3,0.00
2013-1-11,37.3,33.6,31.2,31.0,28.4,26.6,85,81,73,30.42,30.23,1,0,1,0.00
2013-1-12,36.1,32.2,30.9,28.0,26.0,24.9,81,78,72,30.50,30.41,1,0,1,0.00
2013-1-14,35.6,35.4,35.2,33.2,33.0,32.7,91,91,90,30.64,30.57,0,0,3,0.00
2013-1-16,38.7,36.2,34.6,34.1,32.4,31.1,88,86,83,30.73,30.63,0,0,1,0.00
2013-1-17,39.9,35.4,32.9,35.7,32.3,29.7,91,88,84,30.63,30.37,1,0,1,0.00
2013-1-18,40.8,37.7,34.6,37.4,35.3,32.0,94,91,86,30.42,30.35,0,0,0,0.00
2013-1-19,40.0,39.0,36.4,37.9,37.2,34.3,95,93,91,30.40,30.36,0,0,0,0.00
2013-1-20,40.2,38.9,37.5,38.1,37.1,35.1,95,93,91,30.42,30.30,2,0,2,0.00
2013-1-21,39.1,37.4,34.5,37.5,35.2,31.6,94,92,89,30.30,30.15,0,0,0,0.00
2013-1-22,37.7,35.5,32.0,36.2,33.3,28.3,95,92,86,30.15,29.92,1,0,1,0.00
2013-1-23,42.2,40.3,37.7,42.2,39.3,35.9,100,96,91,30.16,29.82,3,0,3,0.00
2013-1-24,43.1,41.5,39.7,40.9,39.8,37.9,97,94,89,30.26,30.08,4,0,4,0.00
2013-1-25,44.8,42.7,40.9,43.7,41.6,39.5,99,96,93,30.13,29.97,2,0,2,0.00
2013-1-26,42.7,41.7,40.2,41.0,39.6,37.7,94,92,90,30.09,29.93,4,0,4,0.00
2013-1-27,43.4,41.5,39.9,41.3,39.8,38.1,96,94,91,30.09,30.02,1,0,1,0.00
2013-1-28,43.0,41.5,40.5,40.0,38.9,37.8,94,90,86,30.12,30.03,3,0,3,0.00
2013-1-29,45.4,43.0,41.2,42.6,40.6,39.1,94,91,85,30.38,30.12,0,0,0,0.00
2013-1-30,44.8,43.7,43.0,43.2,42.2,41.1,96,94,93,30.45,30.38,0,0,0,0.00
2013-1-31,47.7,45.6,43.8,47.1,44.7,42.6,100,97,94,30.45,30.33,2,0,2,0.00
2013-2-1,48.1,45.3,42.6,45.4,43.3,40.1,97,93,87,30.51,30.41,1,0,1,0.00
2013-2-2,43.8,42.2,41.0,41.5,40.2,38.9,96,93,90,30.50,30.33,1,0,1,0.00
2013-2-3,44.1,43.0,41.7,43.3,41.5,39.8,97,95,92,30.38,30.24,1,0,1,0.00
2013-2-4,47.6,45.1,43.2,44.2,43.0,41.7,97,93,86,30.24,29.92,4,0,4,0.00
2013-2-5,47.1,45.4,44.3,44.3,42.9,41.0,94,91,87,29.94,29.83,6,0,6,0.00
2013-2-6,46.2,44.9,43.7,43.3,41.8,40.3,91,89,84,30.07,29.83,4,0,4,0.00
2013-2-7,50.4,44.4,39.7,41.3,38.7,35.8,89,80,70,30.29,29.81,7,0,7,0.00
2013-2-8,43.9,41.3,38.7,39.6,37.6,35.3,91,87,80,30.40,30.29,0,0,0,0.00
2013-2-9,43.2,42.1,39.9,40.4,39.4,36.9,93,90,87,30.45,30.35,0,0,0,0.00
2013-2-10,43.5,40.7,36.7,40.6,37.6,33.8,93,89,77,30.48,30.41,2,0,2,0.00
2013-2-11,44.4,43.4,42.4,43.3,41.9,40.5,96,94,93,30.43,30.40,1,0,1,0.00
2013-2-12,47.0,45.5,43.6,44.9,43.6,42.1,97,93,88,30.46,30.29,2,0,2,0.00
2013-2-13,47.5,44.9,42.4,42.7,40.7,39.1,91,85,75,30.55,30.33,1,0,1,0.00
2013-2-14,44.9,44.1,43.2,43.8,42.5,41.0,96,94,90,30.67,30.54,2,0,2,0.00
2013-2-15,49.8,45.0,42.9,46.0,42.6,41.0,96,92,84,30.67,30.25,2,0,2,0.00
2013-2-16,53.7,46.5,44.0,45.3,42.7,39.4,96,87,71,30.25,30.14,3,0,3,0.00
2013-2-17,45.7,43.6,41.8,39.5,38.0,36.0,87,80,75,30.31,30.19,2,0,2,0.00
2013-2-18,43.7,42.6,41.9,39.7,38.7,37.6,89,86,81,30.19,29.85,4,0,4,0.00
2013-2-19,48.8,43.3,41.1,41.3,38.5,35.6,88,83,73,30.07,29.84,4,0,4,0.00
2013-2-20,43.5,41.5,39.3,41.2,38.7,35.4,93,90,84,30.11,30.07,2,0,2,0.00
2013-2-21,45.6,43.1,40.7,41.5,40.0,38.3,94,89,84,30.10,30.03,3,0,3,0.00
2013-2-22,46.2,43.6,42.0,43.6,40.1,36.0,96,88,77,30.07,29.65,8,1,8,0.00
2013-2-23,50.4,43.8,39.9,42.2,38.4,35.4,88,81,72,30.40,29.90,3,0,3,0.00
2013-2-24,45.1,44.0,42.5,40.6,39.3,37.7,87,83,80,30.42,29.93,6,1,6,0.00
2013-2-25,46.9,44.6,42.6,41.7,39.5,37.1,89,82,74,30.34,29.84,4,0,4,0.00
2013-2-26,44.4,42.7,40.6,40.1,37.6,36.0,90,82,75,30.40,30.23,9,0,9,0.00
2013-2-27,48.8,43.3,39.8,42.4,39.4,36.8,93,86,74,30.39,30.24,2,0,2,0.00
2013-2-28,45.1,42.4,41.2,44.9,40.0,37.4,100,91,86,30.38,30.29,3,0,3,0.00
2013-3-1,50.3,49.1,45.9,50.0,48.7,45.9,100,99,94,30.33,30.30,4,0,4,0.00
2013-3-2,50.0,47.7,43.0,49.7,46.3,39.7,99,95,87,30.31,30.09,3,0,3,0.00
2013-3-3,49.9,43.5,40.3,41.2,38.8,36.4,89,84,71,30.40,30.23,3,0,3,0.00
2013-3-4,48.9,42.0,36.8,40.4,37.1,33.2,89,83,69,30.40,30.06,2,0,2,0.00
2013-3-5,44.2,44.2,44.2,36.8,36.8,36.8,75,75,75,29.97,29.97,0,0,0,0.00
2013-3-6,45.1,44.6,43.8,42.3,41.3,40.1,93,88,83,29.95,29.74,0,0,0,0.00
2013-3-7,45.7,43.6,41.9,43.9,41.5,39.2,95,92,90,30.20,29.96,2,0,2,0.00
2013-3-8,48.9,43.2,40.5,44.0,40.1,38.2,94,89,80,30.33,30.18,2,0,2,0.00
2013-3-9,50.7,44.3,40.0,44.8,40.6,37.0,94,87,75,30.57,30.33,2,0,2,0.00
2013-3-10,47.0,45.0,42.5,42.8,41.5,39.1,93,88,80,30.57,30.50,0,0,3,0.00
2013-3-11,48.3,45.0,42.2,43.7,41.7,39.5,93,88,78,30.52,30.21,1,0,6,0.00
2013-3-12,50.1,47.4,43.4,49.5,46.4,41.1,100,97,90,30.21,30.03,4,0,8,0.00
2013-3-13,50.3,49.8,49.1,49.9,49.0,48.1,99,97,95,30.23,30.10,3,0,8,0.00
2013-3-14,50.4,49.3,48.4,49.8,48.4,47.3,99,97,95,30.19,30.08,1,0,4,0.00
2013-3-15,53.5,49.5,47.0,50.6,48.1,45.7,99,95,88,30.27,30.18,2,0,6,0.00
2013-3-16,51.2,46.8,43.9,47.0,43.2,38.7,96,87,74,30.18,29.89,3,0,7,0.00
2013-3-17,52.4,45.8,42.4,39.6,37.4,35.5,85,73,55,30.21,29.99,4,0,5,0.00
2013-3-18,53.9,45.9,42.4,40.5,37.1,34.2,83,72,57,30.32,30.10,5,0,6,0.00
2013-3-19,48.2,43.8,40.7,41.8,37.0,34.0,88,77,61,30.31,29.64,5,1,12,0.00
2013-3-20,57.1,47.7,43.4,48.7,42.8,36.6,98,84,66,30.00,29.36,5,1,9,0.00
2013-3-21,53.6,44.5,39.2,37.9,35.4,32.7,80,71,47,30.26,30.01,5,0,8,0.00
2013-3-22,51.6,43.3,40.0,37.4,33.6,30.7,81,69,56,30.47,30.25,5,1,8,0.00
2013-3-23,54.1,43.7,39.2,37.2,34.0,29.0,83,69,48,30.49,30.40,3,0,8,0.00
2013-3-24,52.1,44.5,41.2,39.0,35.5,32.6,77,71,53,30.41,30.23,4,0,5,0.00
2013-3-25,58.6,48.5,43.9,42.8,37.7,35.2,80,67,54,30.24,30.05,2,0,4,0.00
2013-3-26,57.3,49.1,43.7,45.4,41.6,38.3,85,76,59,30.12,30.06,1,0,3,0.00
2013-3-27,56.5,49.7,43.2,47.7,43.8,39.1,88,80,66,30.10,30.04,0,0,3,0.00
2013-3-28,60.2,51.8,46.2,49.1,45.2,42.2,90,78,65,30.23,30.10,1,0,4,0.00
2013-3-29,63.3,52.2,45.9,52.5,46.4,42.2,92,81,66,30.37,30.24,2,0,4,0.00
2013-3-30,63.6,52.9,45.9,51.9,46.5,42.0,88,79,63,30.38,30.20,3,0,4,0.00
2013-3-31,66.0,54.4,47.8,51.7,47.2,43.0,89,77,58,30.20,30.01,2,0,4,0.00
2013-4-1,62.9,53.8,48.4,51.4,47.2,43.4,87,79,64,30.21,30.04,3,0,8,0.00
2013-4-2,58.3,52.3,50.3,48.0,46.2,45.1,86,80,67,30.29,30.21,2,0,6,0.00
2013-4-3,60.4,53.3,49.4,50.4,46.9,45.2,87,79,65,30.29,30.08,0,0,3,0.00
2013-4-4,53.7,52.4,51.0,51.5,49.4,46.6,96,89,79,30.07,29.67,3,0,6,0.00
2013-4-5,55.0,51.7,50.6,50.9,50.1,47.0,95,94,86,29.90,29.73,3,0,9,0.29
2013-4-6,55.5,50.7,48.3,47.0,44.8,43.4,88,80,66,29.96,29.73,3,0,12,0.00
2013-4-7,50.5,48.1,46.1,45.5,44.1,42.9,92,86,78,29.94,29.65,6,0,7,0.00
2013-4-8,58.1,50.3,47.6,48.9,45.4,44.0,90,83,69,30.33,29.94,2,0,5,0.00
2013-4-9,50.7,49.3,47.8,47.0,45.5,43.5,90,86,81,30.43,30.23,2,0,5,0.00
2013-4-10,60.7,51.9,48.7,51.4,48.1,46.2,98,87,71,30.22,29.92,3,0,9,0.00
2013-4-11,60.5,51.5,46.2,44.3,40.5,37.2,77,66,53,30.37,30.26,3,0,5,0.00
2013-4-12,46.8,45.3,43.8,42.5,40.8,38.7,92,84,77,30.25,29.69,4,0,10,0.00
2013-4-13,49.8,44.8,41.1,43.9,39.2,35.4,86,81,73,30.06,29.77,6,0,10,0.00
2013-4-14,55.3,46.8,42.9,45.1,40.9,39.1,89,80,64,30.09,30.01,2,0,4,0.00
2013-4-15,58.7,49.9,44.6,48.2,43.2,38.3,90,78,59,30.27,30.02,2,0,4,0.00
2013-4-16,62.4,50.8,43.2,47.6,41.0,38.1,85,70,51,30.47,30.28,3,0,3,0.00
2013-4-17,59.9,51.8,47.4,46.9,43.0,39.0,81,72,60,30.52,30.46,4,0,9,0.00
2013-4-18,51.0,49.1,48.1,47.6,45.6,43.4,95,88,75,30.52,30.27,5,0,8,0.00
2013-4-19,54.6,51.1,49.0,51.7,49.1,47.6,97,93,87,30.26,30.15,2,0,5,0.00
2013-4-20,59.0,53.1,50.0,50.2,47.6,45.6,94,82,68,30.33,30.22,1,0,3,0.00
2013-4-21,54.8,49.7,46.4,46.3,42.9,38.5,86,77,61,30.50,30.30,5,0,11,0.00
2013-4-22,61.7,49.5,41.0,45.6,39.1,29.4,83,68,37,30.67,30.51,3,0,4,0.00
2013-4-23,62.3,52.3,45.8,47.8,42.4,36.4,84,70,54,30.52,30.37,4,0,5,0.00
2013-4-24,64.4,53.9,47.0,49.0,44.8,40.5,82,72,53,30.43,30.15,0,0,1,0.00
2013-4-25,66.1,56.1,50.2,52.8,48.0,44.5,85,75,59,30.21,30.13,1,0,4,0.00
2013-4-26,55.6,53.2,49.7,49.1,47.4,45.4,85,81,76,30.34,30.21,3,0,7,0.00
2013-4-27,55.6,53.4,52.2,50.1,47.5,45.2,88,80,73,30.27,30.19,2,0,6,0.00
2013-4-28,60.2,52.6,46.3,46.3,43.1,39.2,82,70,54,30.28,29.98,5,0,8,0.00
2013-4-29,60.3,52.1,47.3,44.7,40.4,37.0,78,65,45,30.21,29.97,6,1,11,0.00
2013-4-30,60.3,50.7,45.9,42.6,38.6,35.4,75,64,45,30.53,30.22,4,0,7,0.00
2013-5-1,62.0,51.7,44.4,46.3,40.7,36.6,82,67,44,30.70,30.54,2,0,5,0.00
2013-5-2,57.5,53.4,48.3,48.9,45.1,39.7,84,73,63,30.65,30.48,3,0,7,0.00
2013-5-3,67.0,57.1,50.3,54.7,49.2,45.3,86,75,62,30.52,30.34,4,0,8,0.00
2013-5-4,70.4,60.6,54.3,56.9,51.1,47.0,85,72,58,30.38,30.10,6,0,7,0.00
2013-5-5,75.8,64.4,56.3,58.5,51.6,47.4,78,64,49,30.11,29.85,3,0,5,0.00
2013-5-6,69.6,59.9,57.5,54.2,52.4,50.8,82,76,58,29.95,29.89,0,0,1,0.00
2013-5-18,63.1,56.6,54.3,52.9,51.4,50.1,91,83,67,30.37,30.12,0,0,0,0.02
2013-5-19,65.2,57.4,53.8,53.4,51.0,49.2,92,80,62,30.49,30.37,0,0,0,0.00
2013-5-20,65.8,57.6,52.7,53.7,50.8,49.0,88,78,63,30.43,29.98,0,0,0,0.02
2013-5-21,60.8,52.9,50.7,50.9,49.1,47.4,90,87,69,29.96,29.88,0,0,0,0.32
2013-5-22,61.5,53.8,48.5,50.0,48.0,45.7,92,81,64,30.02,29.92,1,0,0,0.20
2013-5-23,65.3,55.5,50.7,51.2,48.3,46.6,89,77,60,30.09,30.03,1,0,0,0.04
2013-5-24,70.3,57.7,50.7,52.3,48.4,45.1,89,73,46,30.10,30.06,1,0,4,0.01
2013-5-25,64.2,56.0,52.2,52.3,49.2,47.5,86,78,60,30.12,30.08,2,0,5,0.00
2013-5-26,60.6,57.0,55.2,54.3,52.4,51.4,88,85,76,30.07,30.02,1,0,6,0.00
2013-5-27,58.5,57.3,56.0,55.2,54.0,51.7,92,88,82,30.01,29.79,2,0,5,0.00
2013-5-28,57.1,55.7,53.9,54.8,53.3,51.6,94,92,89,29.96,29.82,2,0,5,0.00
2013-5-29,54.8,54.2,53.8,52.5,51.9,51.7,93,92,91,29.84,29.78,0,0,2,0.00
2013-5-30,60.5,54.7,50.6,53.4,50.5,48.1,92,86,73,30.33,30.04,1,0,0,0.03
2013-5-31,67.5,58.0,52.6,53.4,50.7,48.8,92,78,59,30.45,30.33,0,0,0,0.00
2013-6-1,68.5,59.2,54.9,57.0,52.5,50.0,87,79,64,30.33,30.17,0,0,0,0.00
2013-6-2,73.8,60.5,55.4,58.6,53.3,49.9,87,78,48,30.19,30.12,1,0,0,0.00
2013-6-3,73.9,60.7,55.0,59.2,53.6,51.1,89,78,50,30.21,30.15,0,0,0,0.00
2013-6-4,74.3,62.6,55.6,58.3,54.6,52.3,90,76,57,30.24,30.13,0,0,0,0.00
2013-6-5,71.9,66.3,59.9,62.2,58.0,54.9,84,75,65,59.98,30.12,1,0,4,0.00
2013-6-6,73.4,65.6,59.9,60.7,56.4,53.1,85,73,54,30.14,30.05,2,0,4,0.00
2013-6-7,77.1,63.3,58.7,58.4,54.7,52.6,88,74,51,30.19,30.05,6,0,9,0.00
2013-6-8,69.6,60.2,56.4,54.9,52.4,49.9,83,76,58,30.24,30.18,2,0,5,0.00
2013-6-9,72.9,61.5,57.1,57.5,52.3,-99.9,89,74,47,30.18,24.64,3,0,5,0.00
2013-6-10,75.1,60.7,53.5,58.1,51.3,48.0,84,72,48,30.11,29.94,2,0,4,0.00
2013-6-11,72.8,60.8,57.1,53.2,50.4,48.0,79,69,49,30.16,29.96,9,0,10,0.00
2013-6-12,68.7,59.5,55.2,55.3,52.1,48.5,88,77,58,30.22,30.16,1,0,4,0.00
2013-6-13,73.9,61.6,54.4,57.5,53.2,50.4,91,75,49,30.26,30.21,1,0,4,0.00
2013-6-14,69.8,60.6,56.5,56.5,53.1,51.1,86,77,58,30.30,30.16,5,0,8,0.00
2013-6-15,68.7,59.6,54.7,59.3,53.9,50.1,86,82,69,30.16,30.04,2,0,4,0.00
2013-6-16,75.4,64.9,59.5,59.6,56.1,53.8,86,74,55,30.13,30.05,5,0,6,0.00
2013-6-17,75.4,65.6,60.1,59.1,55.2,52.4,80,70,53,30.13,29.97,4,0,5,0.00
2013-6-18,74.8,65.4,60.1,58.1,55.8,51.4,86,72,50,30.04,29.97,2,0,5,0.00
2013-6-19,68.9,63.7,60.1,58.4,56.3,54.0,85,77,63,30.03,29.95,1,0,3,0.00
2013-6-20,63.2,59.4,57.2,58.7,56.4,54.6,93,90,82,30.16,29.96,0,0,2,0.00
2013-6-21,69.4,60.4,56.4,58.8,55.2,53.8,92,83,65,30.25,30.15,3,0,5,0.00
2013-6-22,74.5,64.0,58.4,60.1,56.7,53.6,89,78,57,30.20,29.96,2,0,4,0.00
2013-6-23,66.4,63.3,59.4,63.1,59.5,54.9,94,88,82,29.96,29.68,0,0,1,0.00
2013-6-24,63.4,61.8,60.2,61.6,59.3,57.3,95,92,84,29.76,29.62,3,0,6,0.00
2013-6-25,69.1,62.3,59.4,60.9,58.4,56.4,94,87,77,29.89,29.74,5,0,7,0.00
2013-6-26,67.9,62.6,58.9,61.1,58.5,55.2,95,87,78,30.14,29.89,4,0,5,0.00
2013-6-27,66.5,63.6,61.4,63.7,61.0,57.3,96,91,86,30.30,30.12,2,0,4,0.00
2013-6-28,69.6,65.9,62.6,64.9,62.5,60.2,94,89,83,30.30,30.14,2,0,2,0.00
2013-6-29,82.8,70.4,63.6,68.6,64.2,61.5,94,82,60,30.18,30.06,1,0,2,0.00
2013-6-30,87.1,73.4,66.7,70.7,65.3,60.8,84,76,59,30.09,29.92,1,0,2,0.00
2013-7-1,84.7,72.0,67.5,68.4,64.0,59.3,85,76,57,30.03,29.95,3,0,7,0.00
2013-7-2,82.7,71.0,64.1,66.7,61.0,57.5,82,71,53,30.14,30.03,2,0,4,0.00
2013-7-3,84.8,69.7,65.3,63.9,58.6,54.9,77,68,39,30.19,30.07,0,0,3,0.00
2013-7-4,81.3,67.3,61.1,61.9,58.0,55.4,84,73,49,30.15,30.06,2,0,3,0.00
2013-7-5,81.7,67.3,61.6,62.5,58.9,56.0,85,75,52,30.07,29.99,3,0,5,0.00
2013-7-6,82.8,67.6,62.4,64.9,59.7,56.3,83,76,53,30.14,29.90,4,0,7,0.00
2013-7-7,81.5,68.1,63.6,63.8,60.0,58.3,84,76,51,30.23,29.92,1,0,4,0.00
2013-7-8,83.5,67.7,63.0,63.4,60.2,58.1,87,78,50,30.14,29.99,1,0,5,0.00
2013-7-9,88.3,70.8,62.4,66.7,61.3,57.8,87,73,49,30.17,30.03,1,0,2,0.00
2013-7-10,80.7,68.1,62.6,63.8,57.8,52.9,86,70,43,30.09,29.95,3,0,7,0.00
2013-7-11,79.7,65.2,60.0,56.0,53.1,50.2,79,66,41,30.12,29.97,1,0,6,0.00
2013-7-12,79.8,64.1,57.6,58.5,54.6,51.7,85,72,46,30.13,30.06,0,0,3,0.00
2013-7-13,82.1,65.5,57.9,60.9,56.0,52.0,83,72,44,30.26,30.13,2,0,3,0.00
2013-7-14,82.4,67.8,61.4,62.4,58.3,56.2,86,73,47,30.18,30.07,2,0,5,0.00
2013-7-15,83.7,69.0,63.7,63.2,58.1,54.1,81,69,41,30.14,29.97,4,0,6,0.00
2013-7-16,79.8,71.0,65.5,64.4,59.4,54.9,80,67,55,29.99,29.86,3,0,6,0.00
2013-7-17,80.5,70.9,66.8,63.2,59.8,56.0,77,68,53,30.22,29.90,3,0,10,0.00
2013-7-18,81.3,69.3,63.7,63.3,59.6,57.4,81,72,53,30.28,30.16,1,0,3,0.00
2013-7-19,80.8,68.9,62.1,65.1,60.2,56.6,85,74,59,30.21,30.07,2,0,4,0.00
2013-7-20,77.2,66.6,61.1,63.0,58.1,55.4,83,75,56,30.11,29.99,2,0,5,0.00
2013-7-21,77.3,65.8,-2.1,62.7,57.5,-8.4,85,75,60,30.36,26.95,1,0,3,0.00
2013-7-22,76.8,67.0,60.2,63.3,58.9,55.3,85,76,56,30.10,29.97,1,0,2,0.00
2013-7-23,79.7,68.3,60.9,65.1,59.1,56.0,85,73,54,30.13,30.01,0,0,1,0.00
2013-7-24,79.1,68.7,60.6,64.9,58.4,53.9,80,70,56,30.11,30.03,0,0,2,0.00
2013-7-25,79.9,68.6,59.9,65.2,59.0,53.3,81,72,59,30.15,30.06,1,0,2,0.00
2013-7-26,80.0,69.3,64.8,63.2,59.4,57.7,87,71,53,30.20,30.11,5,0,5,0.00
2013-7-27,78.0,68.2,63.9,61.3,57.6,55.0,77,69,55,30.19,30.04,6,0,7,0.00
2013-7-28,77.4,67.7,62.8,61.9,58.9,56.0,83,74,58,30.04,29.96,2,0,4,0.00
2013-7-29,77.9,67.8,61.8,61.3,58.4,55.6,83,72,55,30.05,29.97,0,0,3,0.00
2013-7-30,75.5,67.5,62.3,61.7,58.7,56.2,82,74,61,30.17,30.02,3,0,4,0.00
2013-7-31,75.3,67.5,61.5,62.2,59.0,56.3,85,75,61,30.16,30.03,2,0,4,0.00
2013-8-1,73.9,66.6,62.6,60.5,58.3,56.3,82,75,61,30.08,30.03,5,0,8,0.00
2013-8-2,64.5,62.3,61.2,59.2,57.7,56.3,90,85,78,30.18,30.06,4,0,6,0.00
2013-8-3,74.6,65.4,61.2,63.4,59.5,57.5,89,82,65,30.19,30.10,1,0,1,0.00
2013-8-4,78.5,67.8,62.3,70.7,61.5,58.0,92,81,61,30.28,29.99,0,0,3,0.00
2013-8-5,80.4,68.8,61.8,67.1,61.5,57.6,87,78,63,30.06,29.96,0,0,1,0.00
2013-8-6,81.4,68.6,60.6,63.9,58.2,54.2,83,70,53,30.05,29.95,2,0,4,0.00
2013-8-7,83.3,70.0,62.1,62.1,58.1,55.5,79,67,46,30.04,29.96,2,0,3,0.00
2013-8-8,79.9,68.6,61.8,64.7,59.1,54.6,85,72,58,30.07,29.95,4,0,8,0.00
2013-8-9,79.9,68.5,60.7,66.0,59.5,54.5,81,73,60,29.99,29.84,0,0,2,0.00
2013-8-10,75.9,68.0,64.5,62.8,59.8,56.4,86,75,63,30.03,29.88,4,0,5,0.00
2013-8-11,74.0,65.4,61.3,62.4,57.7,54.9,91,76,65,30.11,30.01,5,0,7,0.00
2013-8-12,77.2,67.0,61.7,61.7,58.6,56.2,85,75,57,30.11,30.04,3,0,6,0.00
2013-8-13,78.8,67.9,61.1,61.4,58.5,55.8,85,73,54,30.14,29.97,2,0,5,0.00
2013-8-14,72.2,66.6,62.3,65.3,60.9,56.1,90,82,71,29.99,29.94,2,0,4,0.00
2013-8-15,69.6,66.1,64.1,64.2,62.9,61.2,93,89,83,30.03,29.95,2,0,4,0.00
2013-8-16,75.7,67.4,61.6,66.1,62.8,58.9,93,86,70,30.06,30.00,1,0,3,0.00
2013-8-17,71.5,67.7,64.6,65.4,61.2,58.3,91,80,71,30.09,30.01,2,0,8,0.00
2013-8-18,69.6,64.3,60.5,60.5,57.8,55.5,87,80,68,30.15,30.08,4,0,5,0.00
2013-8-19,72.7,64.0,60.1,61.5,56.8,54.3,83,78,65,30.16,30.08,2,0,5,0.00
2013-8-20,77.4,65.3,59.2,64.2,57.4,53.3,90,76,58,30.22,30.13,1,0,3,0.00
2013-8-21,79.5,66.7,58.9,64.4,58.5,54.1,86,75,59,30.15,29.99,2,0,4,0.00
2013-8-22,79.0,69.2,61.7,66.2,61.2,56.6,90,76,58,29.99,29.82,0,0,1,0.00
2013-8-23,74.3,66.0,61.5,61.4,58.4,55.4,88,77,63,29.92,29.82,6,0,9,0.00
2013-8-24,75.4,66.3,62.3,62.1,59.4,57.0,89,79,61,29.95,29.90,2,0,5,0.00
2013-8-25,76.2,66.3,59.8,60.9,57.2,53.6,86,73,58,29.99,29.89,1,0,3,0.00
2013-8-26,70.0,64.7,61.1,62.5,57.4,53.6,84,77,70,29.96,29.86,2,0,6,0.00
2013-8-27,70.1,65.5,62.2,62.8,60.0,57.3,89,83,74,29.98,29.83,3,0,5,0.00
2013-8-28,71.9,66.4,62.7,65.6,62.7,60.3,95,88,77,29.95,29.86,0,0,2,0.00
2013-8-29,67.3,66.2,64.5,65.7,64.1,61.5,97,93,90,29.98,29.90,6,0,7,0.00
2013-8-30,70.3,64.8,61.5,62.9,60.7,58.3,96,87,70,30.20,29.97,0,0,7,0.00
2013-8-31,74.3,65.3,59.6,64.4,60.1,56.5,92,84,68,30.15,29.88,2,0,4,0.00
2013-9-1,78.2,67.5,61.0,62.7,60.4,57.7,91,79,57,29.92,29.82,1,0,3,0.00
2013-9-2,71.7,65.4,62.0,64.7,60.8,57.4,94,85,76,29.98,29.88,0,0,0,0.00
2013-9-3,69.3,63.9,61.7,65.8,61.1,57.9,97,91,84,30.07,29.97,0,0,0,0.00
2013-9-4,66.4,63.8,61.5,63.8,61.4,59.5,97,92,88,30.10,30.03,0,0,0,0.00
2013-9-5,64.1,62.5,60.5,63.2,60.9,58.2,97,95,91,30.09,29.94,0,0,1,0.00
2013-9-6,66.2,63.4,60.7,63.1,61.3,58.8,97,93,87,31.92,29.93,1,0,5,0.00
2013-9-7,74.5,65.9,62.1,65.9,62.1,59.8,96,88,73,32.31,30.06,2,0,6,0.00
2013-9-8,75.9,65.1,60.6,71.1,61.4,58.0,97,88,76,30.14,22.17,0,0,1,0.00
2013-9-9,73.9,64.4,59.4,65.5,60.0,56.3,92,86,72,30.11,30.02,2,0,3,0.00
2013-9-10,76.9,67.0,61.2,66.4,61.9,58.5,94,84,68,30.06,29.94,3,0,4,0.00
2013-9-11,81.0,70.1,64.1,66.7,63.4,60.9,92,80,58,30.01,29.91,1,0,2,0.00
2013-9-12,80.5,69.3,63.6,67.2,62.6,59.6,89,80,61,30.01,29.90,0,0,0,0.00
2013-9-13,67.9,63.2,61.1,61.9,59.0,57.4,90,86,80,29.99,29.88,4,0,7,0.00
2013-9-14,64.5,62.3,61.1,61.1,59.7,57.8,94,91,87,29.92,29.78,0,0,3,0.00
2013-9-15,74.3,61.6,60.4,72.1,59.9,58.7,96,94,91,29.82,29.72,2,0,4,0.00
2013-9-16,64.4,60.8,59.4,61.2,59.0,57.1,97,94,89,29.93,29.78,4,0,5,0.00
2013-9-17,68.2,60.8,57.2,60.2,56.9,53.0,94,87,74,29.93,29.87,0,0,1,0.00
2013-9-18,69.6,60.8,56.7,58.3,54.8,52.7,92,81,61,30.09,29.93,1,0,3,0.00
2013-9-19,72.6,62.7,58.4,59.6,55.9,53.9,86,79,54,30.09,29.78,3,0,4,0.00
2013-9-20,66.3,61.1,58.0,58.8,55.1,52.8,91,81,66,29.77,29.61,0,0,2,0.00
2013-9-21,67.0,61.1,57.9,59.3,56.8,55.2,93,86,73,29.74,29.65,2,0,3,0.00
2013-9-22,61.1,58.3,56.8,56.1,54.6,52.7,92,88,83,29.69,29.51,5,0,12,0.00
2013-9-23,63.9,57.7,54.1,55.7,52.1,48.6,89,82,70,29.97,29.69,2,0,4,0.00
2013-9-24,60.5,55.9,53.1,53.1,50.9,48.4,89,83,74,29.97,29.88,0,0,1,0.00
2013-9-25,62.4,56.2,52.2,54.1,51.7,49.0,92,85,73,30.04,29.90,4,0,9,0.00
2013-9-26,62.9,55.6,50.6,54.0,50.6,46.9,90,83,72,30.16,30.04,1,0,3,0.00
2013-9-27,55.3,54.6,53.5,53.9,52.0,50.6,95,91,85,30.12,29.83,3,0,5,0.00
2013-9-28,56.9,54.9,53.8,56.5,53.1,51.0,99,94,89,29.83,29.28,4,0,10,0.00
2013-9-29,55.0,54.0,52.6,53.3,51.3,48.5,94,91,82,29.50,29.13,8,1,16,0.00
2013-9-30,56.3,53.2,51.9,51.4,48.6,46.3,89,84,80,29.90,29.29,4,0,7,0.00
2013-10-1,58.4,52.9,50.6,52.6,48.7,46.2,92,86,75,30.13,29.90,5,0,9,0.00
2013-10-2,52.0,51.1,50.1,50.3,49.0,48.0,95,92,89,30.24,30.10,3,0,6,0.00
2013-10-3,56.0,50.2,46.0,50.2,46.9,42.8,93,89,80,30.51,30.25,1,0,3,0.00
2013-10-4,55.6,51.3,47.0,50.8,47.9,44.2,96,88,81,30.54,30.40,0,0,3,0.00
2013-10-5,61.3,56.1,53.1,54.2,51.6,49.3,92,85,70,30.42,30.19,0,0,5,0.00
2013-10-6,65.8,57.4,52.2,57.1,52.5,49.4,93,84,64,30.19,29.84,3,0,6,0.00
2013-10-7,62.6,56.7,54.4,54.1,51.6,49.4,92,83,71,29.98,29.85,3,0,5,0.00
2013-10-8,58.7,53.9,50.7,51.2,48.2,45.9,88,81,65,30.16,29.97,4,0,6,0.00
2013-10-9,55.5,51.1,47.4,48.4,46.0,43.8,91,83,71,30.20,30.00,2,0,4,0.00
2013-10-10,56.8,52.5,49.6,51.2,48.1,45.3,92,85,77,30.13,29.97,1,0,4,0.00
2013-10-11,52.6,49.8,46.3,48.7,46.2,42.6,90,87,83,30.21,30.12,0,0,0,0.00
2013-10-12,58.5,52.1,49.6,51.0,48.4,46.9,92,87,76,30.27,30.13,4,0,7,0.00
2013-10-13,57.6,50.4,47.3,50.0,46.4,44.2,91,86,73,30.42,30.27,0,0,2,0.00
2013-10-14,54.8,50.0,46.6,49.9,47.0,43.4,95,89,83,30.49,30.42,2,0,4,0.00
2013-10-15,53.3,51.2,49.2,50.0,48.7,46.6,94,91,88,30.44,30.23,0,0,1,0.00
2013-10-16,55.4,52.0,49.4,51.6,49.5,46.9,96,91,86,30.26,30.20,2,0,5,0.00
2013-10-17,53.4,51.3,50.0,50.5,49.3,48.0,95,93,89,30.34,30.25,0,0,1,0.00
2013-10-18,50.8,49.8,48.3,49.1,47.9,45.8,95,93,91,30.32,30.22,0,0,1,0.00
2013-10-19,51.1,49.9,48.9,49.7,48.3,47.2,96,94,93,30.26,30.21,0,0,3,0.00
2013-10-20,55.7,50.6,50.0,53.1,48.5,47.8,94,92,90,30.27,27.52,0,0,1,0.00
2013-10-21,51.3,50.1,49.3,49.5,48.3,47.4,95,93,91,30.23,30.16,0,0,3,0.00
2013-10-22,51.3,49.3,48.0,49.5,47.5,46.1,95,93,92,30.19,30.08,1,0,1,0.00
2013-10-23,51.2,48.1,44.7,49.8,46.1,41.7,97,93,89,30.11,30.03,0,0,1,0.00
2013-10-24,50.9,48.1,45.5,49.5,46.2,42.8,97,93,90,30.16,30.07,0,0,0,0.00
2013-10-25,51.3,49.8,48.0,50.5,48.8,46.5,97,96,95,30.37,30.16,1,0,3,0.00
2013-10-26,52.7,51.3,50.1,50.0,49.2,47.6,96,92,88,30.38,30.20,0,0,4,0.00
2013-10-27,57.9,51.8,49.2,51.2,48.4,43.9,93,88,77,30.19,29.96,3,0,6,0.00
2013-10-28,57.1,48.7,44.4,45.4,40.7,35.0,82,74,58,30.11,30.00,2,0,3,0.00
2013-10-29,54.1,46.9,43.3,42.8,40.4,38.1,86,78,59,30.08,30.02,3,0,6,0.00
2013-10-30,51.7,48.1,44.5,47.9,43.8,40.4,92,85,77,30.17,30.08,3,0,5,0.00
2013-10-31,52.0,50.9,49.6,50.9,49.5,47.5,96,95,93,30.30,30.12,0,0,3,0.00
2013-11-1,53.1,52.1,51.0,51.4,50.6,49.6,96,95,91,30.31,29.86,1,0,4,0.00
2013-11-2,51.9,48.3,45.6,50.2,46.6,43.4,96,94,91,29.89,29.46,7,0,10,0.00
2013-11-3,47.3,43.6,36.8,44.2,40.9,33.9,94,90,84,30.17,27.37,2,0,2,0.00
2013-11-4,45.3,42.6,38.8,40.7,38.7,35.5,92,86,79,30.26,30.13,3,0,3,0.00
2013-11-5,45.5,44.2,42.9,43.6,41.4,38.9,93,90,82,30.32,30.10,3,0,3,0.00
2013-11-6,48.8,47.1,45.6,45.3,44.2,42.6,94,90,82,30.39,30.06,3,0,3,0.00
2013-11-7,49.7,48.2,46.2,49.4,46.7,43.7,99,95,89,30.06,29.69,4,0,4,0.00
2013-11-8,52.6,48.9,47.5,47.9,46.3,44.6,95,91,79,30.21,29.98,0,0,0,0.00
2013-11-9,49.1,48.0,46.6,46.3,45.2,43.5,93,90,87,30.21,30.16,1,0,1,0.00
2013-11-10,48.6,47.1,45.1,45.7,44.4,42.3,92,90,86,30.24,30.19,2,0,2,0.00
2013-11-11,51.1,48.5,47.2,45.3,44.1,42.2,91,85,73,30.24,30.05,0,0,0,0.00
2013-11-12,54.6,51.5,48.7,51.4,48.4,43.2,96,89,79,30.34,30.02,3,0,3,0.00
2013-11-13,56.9,52.5,50.0,49.8,48.3,46.8,90,86,76,30.44,30.33,2,0,2,0.00
2013-11-14,50.6,49.2,48.3,47.4,45.3,42.2,93,86,79,30.33,30.07,2,0,2,0.00
2013-11-15,48.3,47.0,45.8,45.7,43.7,40.6,95,88,83,30.08,29.28,5,0,5,0.00
2013-11-16,46.9,45.6,43.6,41.0,40.1,38.5,84,81,74,29.76,29.33,6,0,6,0.00
2013-11-17,50.8,46.6,42.7,44.6,42.1,38.2,89,84,79,29.90,29.76,3,0,3,0.00
2013-11-18,48.3,47.6,45.6,46.1,44.7,43.4,93,90,84,29.90,29.59,1,0,1,0.00
2013-11-19,46.9,43.2,38.1,43.9,33.7,23.0,93,71,48,30.14,29.60,6,1,6,0.00
2013-11-20,41.1,36.6,34.0,30.9,29.2,26.9,81,74,65,30.59,30.15,3,0,3,0.00
2013-11-21,39.4,34.9,32.1,31.8,29.3,26.7,85,80,70,30.74,30.59,1,0,1,0.00
2013-11-22,40.6,36.6,32.6,36.0,32.1,27.5,89,83,79,30.75,30.52,0,0,0,0.00
2013-11-23,43.0,39.3,35.3,39.4,35.6,31.2,92,87,80,30.53,30.27,0,0,0,0.00
2013-11-24,44.6,41.1,37.6,41.8,38.4,34.1,93,90,87,30.32,30.24,2,0,2,0.00
2013-11-25,46.7,42.5,39.3,42.0,39.2,36.1,92,88,81,30.37,30.32,1,0,1,0.00
2013-11-26,44.4,42.3,38.9,41.3,39.0,35.4,91,88,81,30.33,30.15,0,0,0,0.00
2013-11-27,47.9,45.0,41.6,43.8,41.0,37.4,91,86,74,30.16,30.03,0,0,0,0.00
2013-11-28,47.8,45.3,41.8,45.2,42.0,38.8,93,88,79,30.22,30.08,1,0,1,0.00
2013-11-29,48.6,47.4,46.8,46.7,45.4,44.3,96,93,91,30.34,30.22,0,0,0,0.00
2013-11-30,48.2,47.3,46.6,47.7,46.1,45.0,98,96,93,30.35,30.08,3,0,3,0.00
2013-12-1,50.6,48.4,44.2,48.4,45.6,38.1,98,90,76,30.08,29.74,3,0,3,0.00
2013-12-2,44.0,41.4,37.9,37.9,34.7,26.5,85,77,63,30.22,29.81,4,0,4,0.00
2013-12-3,39.4,36.2,34.0,29.0,24.1,20.9,70,61,51,30.39,30.22,2,0,7,0.00
2013-12-4,37.9,33.9,31.4,22.3,19.5,17.0,61,55,47,30.42,30.37,5,0,5,0.00
2013-12-5,34.4,32.6,30.9,21.6,19.3,15.2,64,58,51,30.38,30.25,2,0,2,0.00
2013-12-6,31.5,28.9,27.2,15.5,8.8,5.5,52,42,37,30.38,30.27,11,2,11,0.00
2013-12-7,30.5,26.7,24.1,14.4,8.9,4.0,61,47,36,30.46,30.38,5,0,5,0.00
2013-12-8,31.6,28.7,26.2,21.4,17.2,13.9,72,62,52,30.60,30.46,2,0,2,0.00
2013-12-9,33.1,31.5,29.7,28.8,24.6,19.5,85,75,65,30.61,30.51,3,0,3,0.00
2013-12-10,35.5,34.5,33.0,32.7,31.2,28.6,90,87,83,30.53,30.48,3,0,3,0.00
2013-12-11,38.7,36.7,35.3,34.7,32.9,31.5,89,86,83,30.48,30.20,1,0,1,0.00
2013-12-12,39.8,37.7,35.2,38.2,35.0,31.8,95,90,86,30.20,30.04,1,0,1,0.00
2013-12-13,42.5,41.2,39.8,41.6,39.9,38.2,97,95,94,30.47,30.16,0,0,0,0.00
2013-12-14,46.2,44.4,42.4,45.1,43.5,41.1,100,97,95,30.47,30.33,1,0,1,0.00
2013-12-15,48.6,46.2,42.5,46.7,44.4,39.6,97,94,89,30.46,30.30,3,0,3,0.00
2013-12-16,45.2,42.1,39.9,44.1,39.9,36.9,97,92,89,30.53,30.31,0,0,0,0.00
2013-12-17,44.2,42.1,39.7,43.0,40.5,36.7,97,94,89,30.31,30.09,1,0,1,0.00
2013-12-18,43.7,41.4,38.0,42.3,35.8,29.8,95,81,69,30.30,30.06,3,0,3,0.00
2013-12-19,37.9,35.7,33.5,31.0,28.3,25.9,83,74,65,30.41,30.23,1,0,1,0.00
2013-12-20,35.9,35.5,35.2,33.3,32.7,30.9,92,89,84,30.23,29.76,3,0,3,0.00
2013-12-22,40.8,38.8,-7.1,40.3,36.5,-99.9,98,95,94,30.36,30.26,3,0,3,0.00
2013-12-23,48.2,45.2,40.9,46.6,43.7,40.1,100,94,86,30.54,30.10,4,0,4,0.00
2013-12-24,43.5,41.6,39.7,42.1,39.4,37.3,96,92,90,30.65,30.54,0,0,0,0.00
2013-12-25,41.3,40.0,38.0,39.1,37.5,35.3,93,91,87,30.61,30.46,1,0,1,0.00
2013-12-26,43.9,41.8,39.7,42.4,40.0,37.3,97,93,91,30.46,30.26,2,0,2,0.00
2013-12-27,45.9,42.9,39.7,45.8,41.5,37.6,100,95,90,30.39,30.08,3,0,3,0.00
2013-12-28,44.7,43.7,41.7,42.2,41.2,39.0,93,91,88,30.58,30.39,0,0,0,0.00
2013-12-29,44.0,42.8,41.0,42.4,40.8,38.6,96,93,91,30.53,30.38,0,0,0,0.00
2013-12-30,45.0,43.8,42.8,43.1,41.7,40.6,95,92,89,30.38,30.15,0,0,0,0.00
2013-12-31,46.1,45.1,44.0,45.3,44.1,42.5,97,96,94,30.45,30.21,0,0,0,0.00
2014-1-1,45.1,44.4,43.8,43.2,42.6,42.1,95,94,90,30.47,30.32,0,0,0,0.00
2014-1-2,46.1,44.5,43.3,45.8,43.3,39.7,99,96,87,30.32,29.89,4,0,4,0.00